ONEWEB-0594

operational
NORAD ID: 54660 Int'l Des: 2022-166 Owner: ONEWEBN Country: UK Constellation: oneweb
LEOCIRCULARPOLARONEWEB_TYPE

关于 ONEWEB-0594

正在加载描述...

实时位置

正在加载3D地球...

即将过境

高度历史

Altitude vs Time

uPlot chart will show altitude changes over time

两行轨道根数

1 54660U 22166U 25251.83938373 -.00000002 00000-0 -35345-4 0 9995
2 54660 87.9218 300.1439 0001904 93.8003 266.3348 13.21823524134398
Epoch: Sep 8, 2025 • Age: 14 hours

当前状态

高度 1186.0 km
速度 7.26 km/s
星下点 -20.33°S, 151.87°E
发射日期 Dec 8, 2022
运行时间 2.7 years
类型 internet

技术详情

分类 Payload
质量 148.00 kg
干质量 140.00 kg
总质量 148.00 kg
长度 1.30 m
直径 1.00 m
跨度 5.00 m
形状 Trapezoid+2 pan
制造商 ONEWUS
平台类型 ARROW
阶段状态 In Orbit
所有者/国家 ONEWEBN/UK

大型星座

Loading constellations...